cover

 

Get it on iTunes StoreListen on Apple Music

Flower Power

#Trackname / Key / BPM / Publish dateArtists, Remixers / Label
1 126 bpm, 8A / A minor, 2019-05-20, Techno,  0  23
2 120 bpm, 1A / Ab minor, 2019-05-20, Techno,  0  23
3 126 bpm, 6A / G minor, 2019-05-20, Techno,  0  23
4 124 bpm, 2A / Eb minor, 2019-05-20, Techno,  0  23
5 124 bpm, 8A / A minor, 2019-05-20, Tech House,  0  23
6 122 bpm, 12B / E major, 2019-05-20, Techno,  0  23
7 124 bpm, 2A / Eb minor, 2019-05-20, Techno,  0  23
8 127 bpm, 7B / F major, 2019-05-20, Techno,  0  23
9 124 bpm, 8A / A minor, 2019-05-20, Tech House,  0  23
10 123 bpm, 12A / Db minor, 2019-05-20, Tech House,  0  23
11 122 bpm, 12B / E major, 2019-05-20, Techno,  0  23
12 127 bpm, 9B / G major, 2019-05-20, Techno,  0  23
13 122 bpm, 7A / D minor, 2019-05-20, Tech House,  0  23
14 130 bpm, 6B / Bb major, 2019-05-20, Techno,  0  23
15 130 bpm, 8A / A minor, 2019-05-20, Techno,  0  23
16 135 bpm, 8A / A minor, 2019-05-20, Techno,  0  23
17 127 bpm, 8A / A minor, 2019-05-20, Tech House,  0  23
18 124 bpm, 11A / F# minor, 2019-05-20, Tech House,  0  23
19 123 bpm, 2B / F# major, 2019-05-20, Tech House,  0  23
20 124 bpm, 8A / A minor, 2019-05-20, Melodic House & Techno,  0  23
21 130 bpm, 8A / A minor, 2019-05-20, Tech House,  0  23
22 124 bpm, 8A / A minor, 2019-05-20, Tech House,  0  23
23 124 bpm, 3A / Bb minor, 2019-05-20, Melodic House & Techno,  0  23
24 120 bpm, 12B / E major, 2019-05-13, Electro House,  0  21
25 122 bpm, 8A / A minor, 2019-05-13, Melodic House & Techno,  0  21
26 125 bpm, 1A / Ab minor, 2019-05-13, Melodic House & Techno,  0  21
27 124 bpm, 4A / F minor, 2019-05-13, Melodic House & Techno,  0  21
28 125 bpm, 8A / A minor, 2019-05-13, Melodic House & Techno,  0  21
29 125 bpm, 10A / B minor, 2019-05-13, Melodic House & Techno,  0  21
30 123 bpm, 8A / A minor, 2019-05-13, Melodic House & Techno,  0  21
31 122 bpm, 8A / A minor, 2019-05-13, Melodic House & Techno,  0  21
32 127 bpm, 12B / E major, 2019-05-13, Melodic House & Techno,  0  21
33 126 bpm, 7A / D minor, 2019-05-13, Melodic House & Techno,  0  21
34 120 bpm, 4A / F minor, 2019-05-13, Melodic House & Techno,  0  21
35 122 bpm, 1A / Ab minor, 2019-05-13, Melodic House & Techno,  0  21
36 124 bpm, 3A / Bb minor, 2019-05-13, Melodic House & Techno,  0  21
37 122 bpm, 7A / D minor, 2019-05-13, Melodic House & Techno,  0  21
38 128 bpm, 6B / Bb major, 2019-05-13, Melodic House & Techno,  0  21
39 124 bpm, 2A / Eb minor, 2019-05-13, Melodic House & Techno,  0  21
40 130 bpm, 6A / G minor, 2019-05-13, Melodic House & Techno,  0  21
41 124 bpm, 6A / G minor, 2019-05-13, Melodic House & Techno,  0  21
42 124 bpm, 6A / G minor, 2019-05-13, Melodic House & Techno,  0  21
43 130 bpm, 8A / A minor, 2019-05-13, Melodic House & Techno,  0  21
44 121 bpm, 12A / Db minor, 2019-05-13, Melodic House & Techno,  0  21
45 131 bpm, 6A / G minor, 2019-04-29, Techno,  0  21
46 129 bpm, 3A / Bb minor, 2019-04-29, Techno,  0  21
47 129 bpm, 8A / A minor, 2019-04-29, Minimal,  0  21
48 123 bpm, 6B / Bb major, 2019-04-29, Techno,  0  21
49 125 bpm, 8A / A minor, 2019-04-29, Tech House,  1  21
50 125 bpm, 2A / Eb minor, 2019-04-29, Tech House,  0  21
51 125 bpm, 8A / A minor, 2019-04-29, Techno,  0  21
52 122 bpm, 5A / C minor, 2019-04-29, Tech House,  0  21
53 125 bpm, 3A / Bb minor, 2019-04-29, Tech House,  1  21
54 124 bpm, 8B / C major, 2019-04-29, Techno,  0  21
55 126 bpm, 12A / Db minor, 2019-04-29, Tech House,  0  21
56 124 bpm, 10B / D major, 2019-04-29, Techno,  0  21
57 123 bpm, 9A / E minor, 2019-04-29, Melodic House & Techno,  0  21
58 120 bpm, 10B / D major, 2019-04-29, Deep House,  0  21
59 124 bpm, 5A / C minor, 2019-04-29, Techno,  0  21
60 126 bpm, 6A / G minor, 2019-04-29, Tech House,  0  21
61 124 bpm, 3A / Bb minor, 2019-04-29, Techno,  0  21
62 125 bpm, 12A / Db minor, 2019-04-29, Deep House,  0  21
63 125 bpm, 8B / C major, 2019-04-29, Melodic House & Techno,  0  21
64 124 bpm, 1A / Ab minor, 2019-04-29, Melodic House & Techno,  0  21
65 125 bpm, 8B / C major, 2019-04-29, Melodic House & Techno,  0  21
66 122 bpm, 7B / F major, 2019-04-22, Melodic House & Techno,  0  16
67 126 bpm, 10A / B minor, 2019-04-22, Techno,  0  16
68 126 bpm, 7A / D minor, 2019-04-22, Melodic House & Techno,  0  16
69 122 bpm, 6A / G minor, 2019-04-22, Melodic House & Techno,  0  16
70 124 bpm, 12B / E major, 2019-04-22, Melodic House & Techno,  0  16
71 125 bpm, 11A / F# minor, 2019-04-22, Melodic House & Techno,  0  16
72 120 bpm, 3A / Bb minor, 2019-04-22, Melodic House & Techno,  0  16
73 124 bpm, 7A / D minor, 2019-04-22, Melodic House & Techno,  0  16
74 124 bpm, 2A / Eb minor, 2019-04-22, Melodic House & Techno,  0  16
75 120 bpm, 8A / A minor, 2019-04-22, Melodic House & Techno,  0  16
76 114 bpm, 8A / A minor, 2019-04-22, Melodic House & Techno,  0  16
77 126 bpm, 2A / Eb minor, 2019-04-22, Melodic House & Techno,  0  16
78 125 bpm, 11B / A major, 2019-04-22, Melodic House & Techno,  0  16
79 122 bpm, 12A / Db minor, 2019-04-22, Melodic House & Techno,  0  16
80 124 bpm, 7B / F major, 2019-04-22, Melodic House & Techno,  0  16
81 124 bpm, 12B / E major, 2019-04-22, Melodic House & Techno,  0  16
82 125 bpm, 8A / A minor, 2019-04-15, Techno,  0  24
83 125 bpm, 11A / F# minor, 2019-04-15, House,  0  24
84 127 bpm, 7B / F major, 2019-04-15, Techno,  0  24
85 127 bpm, 11B / A major, 2019-04-15, Tech House,  0  24
86 124 bpm, 8A / A minor, 2019-04-15, Tech House,  0  24
87 124 bpm, 8A / A minor, 2019-04-15, House,  0  24
88 124 bpm, 9A / E minor, 2019-04-15, Techno,  0  24
89 125 bpm, 8A / A minor, 2019-04-15, Techno,  0  24
90 123 bpm, 11B / A major, 2019-04-15, Melodic House & Techno,  0  24
91 130 bpm, 10A / B minor, 2019-04-15, Techno,  0  24
92 127 bpm, 8A / A minor, 2019-04-15, Melodic House & Techno,  0  24
93 126 bpm, 11A / F# minor, 2019-04-15, Techno,  0  24
94 125 bpm, 10A / B minor, 2019-04-15, Progressive House,  0  24
95 125 bpm, 3A / Bb minor, 2019-04-15, Techno,  0  24
96 122 bpm, 8B / C major, 2019-04-15, Tech House,  0  24
97 126 bpm, 7A / D minor, 2019-04-15, Melodic House & Techno,  0  24
98 126 bpm, 8A / A minor, 2019-04-15, Techno,  0  24
99 121 bpm, 9A / E minor, 2019-04-15, House,  0  24
100 129 bpm, 11A / F# minor, 2019-04-15, Techno,  0  24
×

Sign in

Sign in to access your personalized pages, follow artists and labels you love, and create playlists fromyour favorite tracks.

Please wait...